Track STARLINK-1406 now! 10-day predictions STARLINK-1406 is classified as:
1 45687U 20035AG 21027.59002503 -.00000631 00000-0 -24151-4 0 9995 2 45687 52.9958 148.3585 0001636 98.6595 261.4579 15.05586136 37590